Simultaneous Nadir Overpasses (SNOs) Predictions

Prediction of SNOs between GOES-15 and NPP Satellite Orbit:

Table of predicted SNOs for the next 14.0 days since TLE Epoch: 3/21/2014
Index Date Time (GOES-15) GOES-15 Lat,Lon NPP Lat,Lon Distance(km) Time Diff (sec)
1 03/23/2014 10:31:19 -0.02,-134.98 0.03,-135.23 28.24 80
2 03/24/2014 10:09:57 -0.02,-135.01 -1.02,-130.71 490.67 80
3 03/25/2014 22:34:37 0.01,-135.04 -0.22,-136.01 110.72 80
4 03/26/2014 22:13:15 0.01,-135.07 0.82,-131.49 408.12 80
5 03/28/2014 10:37:47 -0.01,-135.12 0.33,-136.77 187.16 80
6 03/29/2014 10:16:25 -0.01,-135.15 -0.66,-132.24 331.30 80
7 03/30/2014 22:41:05 0.01,-135.17 -0.51,-137.55 271.02 80
8 03/31/2014 22:22:23 0.01,-135.20 0.49,-133.02 247.39 80
9 04/02/2014 10:44:15
